Location: Unspecified
(0.0000°N, 0.0000°E)
Time: 20:41:17
(UTC+02:00)

HO-68 - Visible Passes

Search period start: 22 July 2017 00:00
Search period end: 01 August 2017 00:00
Orbit: 1193 x 1204 km, 100.1° (Epoch: 21 July)

Date Brightness Start Highest point End Pass type
(mag) Time Alt. Az. Time Alt. Az. Time Alt. Az.
22 Jul ? 21:54:29 10° SSW 22:00:45 33° WSW 22:07:01 10° NW visible
23 Jul ? 21:37:04 10° S 21:43:53 47° WSW 21:50:42 10° NNW visible
24 Jul ? 21:19:54 10° S 21:27:02 66° WSW 21:34:08 10° NNW visible
25 Jul ? 21:02:56 10° SSE 21:10:10 89° ENE 21:17:21 10° NNW visible
26 Jul ? 20:46:10 10° SSE 20:53:18 64° ENE 21:00:22 10° N visible
26 Jul ? 22:37:44 10° SW 22:40:37 13° WSW 22:43:31 10° W visible
27 Jul ? 20:29:38 10° SSE 20:36:26 45° ENE 20:43:11 10° N visible
27 Jul ? 22:18:57 10° SSW 22:23:48 20° WSW 22:28:39 10° WNW visible
28 Jul ? 22:01:01 10° SSW 22:06:57 28° WSW 22:12:54 10° NW visible
29 Jul ? 21:43:29 10° S 21:50:07 40° WSW 21:56:44 10° NW visible
30 Jul ? 21:26:13 10° S 21:33:15 57° WSW 21:40:15 10° NNW visible
31 Jul ? 07:35:11 10° E 07:37:24 12° ESE 07:39:36 10° SE visible
31 Jul ? 21:09:10 10° S 21:16:23 80° WSW 21:23:34 10° NNW visible
